www.pogodaiklimat.ru

Погода и климат >> Архив погоды >> Россия >> Камчатский край >> Остров Беринга


ПОГОДА на Острове Беринга

  • Прогноз погоды на Острове Беринга
  • Монитор погоды на Острове Беринга
  • Климат города

АРХИВ ПОГОДЫ на Острове Беринга

Время (UTC), дата Ветер
(напр.,м/с)
 
Видим.   Явления Облачность Т
(С)
Тd
(С)
f
(%)
Тe
(С)
Тes
(С)
Комфортность P
(гПа)
Po
(гПа)
Тmin
(С)
Tmax
(С)
R
(мм)
R24
(мм)
S
(см)
09 10.12 В 14-22
{28}
10 км слабый ливневой дождь 10/10 300 м
[Cb cap]
+1.7 +0.2 90 -7 -7 986.6 984.6 +1.8 4
12 10.12 СВ 16-23
{26}
10 км слабый ливневой дождь 10/10 300 м
[Cb cap]
+1.5 +0.6 94 -8 -8 988.3 986.1
15 10.12 В 13-24
{28}
20 км {ливн. осадки} 10/10 600 м
[Cb cap]
+2.2 0.0 85 -6 -6 993.1 990.9
18 10.12 В 13-22
{25}
20 км {ливн. осадки} 10/10 600 м
[Sc]
+2.3 -0.3 83 -6 -6 996.5 994.3
21 10.12 СВ 13-20
{24}
10 км слабый ливневой дождь 10/10 300 м
[Cb cap]
+2.4 +0.8 89 -6 -6 1001.1 998.9 +1.1 2 12
00 11.12 СВ 14-21
{23}
20 км {ливн. осадки} 10/10 300 м
[Sc]
+2.4 +0.3 86 -6 -6 1004.8 1002.6
03 11.12 СВ 12-18
{21}
10 км слабый ливневой снег 9/9 300 м
[Cb cap]
+1.6 -0.6 85 -7 -7 1008.8 1006.5
06 11.12 СВ 11-15
{16}
20 км {ливн. осадки} 10/10 600 м
[Sc]
+1.6 -2.0 77 -6 -6 1012.7 1010.4
09 11.12 В 9-15
{18}
10 км слабый ливневой снег 10/10 300 м
[Cb cap]
+0.3 -1.6 87 -8 -8 1015.7 1013.4 +2.7 0.6
12 11.12 СВ 8-12
{17}
20 км {ливн. осадки} 8/8 600 м
[Sc]
+0.6 -1.8 84 -7 -7 1018.4 1016.1
15 11.12 СВ 7-11
{14}
20 км 10/10 600 м
[Sc]
-0.5 -2.6 86 -8 -8 1020.6 1018.3
18 11.12 СВ 5
{12}
20 км 10/10 600 м
[Sc]
-0.6 -1.9 91 -7 -7 1022.0 1019.7
21 11.12 В 5 20 км {ливн. осадки} 10/10 600 м
[Sc]
0.0 -2.7 82 -6 -6 1023.2 1021.0 -1.2 0.4 11
00 12.12 В 6 10 км слабый ливневой снег 9/9 600 м
[Cb cap]
-0.7 -1.9 92 -8 -8 1023.5 1021.3
03 12.12 В 6 20 км {ливн. осадки} 9/5 600 м
[Cu Sc Ci fib]
-0.5 -3.4 81 -7 -7 1021.3 1019.0
06 12.12 В 6
{10}
20 км {ливн. осадки} 8/8 600 м
[Sc]
-1.1 -4.6 77 -8 -8 1020.5 1018.2
09 12.12 В 4 10 км слабый ливневой снег 9/9 600 м
[Cb cap]
-0.8 -5.4 71 -6 -6 1018.4 1016.1 +0.1 0.4
12 12.12 В 5 20 км {ливн. осадки} 10/10 600 м
[Sc]
-0.6 -6.7 63 -6 -6 1015.4 1013.1
15 12.12 СВ 5
{12}
20 км 10/10 600 м
[Sc]
-1.8 -3.3 89 -8 -8 1012.0 1009.7
18 12.12 В 6-10
{12}
10 км слабый ливневой снег 8/8 600 м
[Cb cap]
-1.1 -3.1 86 -8 -8 1008.7 1006.5
21 12.12 В 7-11
{12}
10 км слабый ливневой снег {метель} 9/8 600 м
[Cb cap Ci fib]
-1.7 -2.1 97 -9 -9 1006.0 1003.7 -2.1 0.5 14
00 13.12 СВ 9-14
{14}
10 км слабый ливневой снег {метель} 9/8 600 м
[Cb cap Ci fib]
-1.0 -2.6 89 -9 -9 1002.5 1000.3
03 13.12 СВ 11-16
{17}
2000 м слабый ливневой снег {метель} 10/10 300 м
[Cb cap]
-1.1 -1.8 95 -10 -10 998.9 996.7
06 13.12 СВ 10-77
{18}
2000 м слабый ливневой снег {метель} 10/10 300 м
[Cb cap]
-0.9 -1.0 99 -10 -10 996.7 994.5
09 13.12 СВ 8-15
{19}
2000 м слабый ливневой снег {метель} 10/10 300 м
[Cb cap]
-0.6 -1.0 97 -9 -9 994.5 992.3 -0.2 2
12 13.12 СВ 10-16
{18}
2000 м слабый ливневой снег {метель} 10/10 300 м
[Cb cap]
-1.0 -1.4 97 -10 -10 993.0 990.8
15 13.12 СВ 8-15
{16}
2000 м слабый ливневой снег {метель} 10/10 300 м
[Cb cap]
-0.1 -1.2 92 -8 -8 990.8 988.6
18 13.12 СВ 8-14
{16}
10 км слабый ливневой снег {метель} 10/10 300 м
[Cb cap]
-0.4 -1.0 96 -8 -8 990.8 987.9
21 13.12 СВ 12-16
{16}
20 км {ливн. осадки} 10/10 600 м
[Cb cap]
+0.3 -2.4 82 -8 -8 990.3 988.1 -1.0 2 18
00 14.12 СВ 7-14
{18}
2000 м ливневой снег {метель} 10/10 300 м
[Cb cap]
-0.8 -0.9 99 -8 -8 990.5 988.3
03 14.12 СВ 10-13
{16}
20 км сильный позёмок {ливн. осадки, метель} 9/8 600 м
[Cb cap Ci sp]
-0.6 -3.7 80 -9 -9 990.7 988.5
06 14.12 СВ 9-12
{13}
20 км {ливн. осадки, метель} 10/9 600 м
[Sc]
-0.7 -5.5 70 -8 -8 990.7 988.5
09 14.12 С 12-16
{16}
20 км 10/10 600 м
[Sc]
-0.4 -6.0 66 -9 -9 990.5 988.3 +0.4 0.4
12 14.12 С 9-12
{16}
20 км 9/9 600 м
[Sc]
-0.7 -4.8 74 -9 -9 990.2 988.0
15 14.12 С 14-17
{17}
4000 м слабый ливневой снег 10/10 300 м
[Cb cap]
-0.8 -1.5 95 -11 -11 989.7 987.5
18 14.12 С 11-15
{17}
70 км {ливн. осадки, метель} 8/8 600 м
[Sc]
-0.1 -2.5 84 -9 -9 990.1 987.9
21 14.12 С 12-16
{16}
20 км 9/9 600 м
[Sc]
-0.5 -1.8 91 -10 -10 990.9 988.7 -1.3 0.3 18
00 15.12 СЗ 11-14
{16}
10 км слабый ливневой снег {метель} 9/9 600 м
[Cb cap]
-0.3 -1.5 92 -9 -9 991.0 988.8
03 15.12 СВ 7
{14}
20 км {ливн. осадки, метель} 10/10 600 м
[Cb cap]
+0.6 -1.2 88 -6 -6 990.8 988.6
06 15.12 СВ 9-12
{12}
10 км слабый ливневой снег {метель} 10/10 300 м
[Cb cap]
0.0 -0.2 99 -8 -8 991.9 989.7
09 15.12 СВ 6-10
{13}
2000 м слабый ливневой снег {метель} 10/10 200 м
[Cb cap]
-0.6 -1.0 97 -8 -8 993.3 991.1 +0.7 2
12 15.12 СВ 5
{13}
20 км {ливн. осадки, метель} 10/10 600 м
[Cb cap]
-0.4 -2.4 86 -7 -7 994.4 992.2
15 15.12 СВ 6
{12}
20 км 10/10 600 м
[Sc]
-0.3 -3.8 77 -7 -7 996.1 993.9
18 15.12 СВ 7
{10}
20 км 10/10 600 м
[Sc]
-0.8 -4.1 78 -8 -8 997.2 995.0
21 15.12 СВ 8-11
{11}
20 км 10/10 600 м
[Sc]
-0.9 -5.3 72 -8 -8 998.8 996.6 -1.0 0.2 19
00 16.12 В 6
{12}
20 км 10/10 600 м
[Sc]
-0.7 -5.8 68 -7 -7 1000.3 998.1
03 16.12 Ю 1
{10}
20 км 10/10 600 м
[Sc]
-0.5 -3.3 81 -2 -2 1001.5 999.3
06 16.12 ЮЗ 7
{10}
4000 м ливневой снег 10/10 300 м
[Cb cap]
-2.6 -2.8 99 -11 -11 1003.9 1001.6
09 16.12 ЮЗ 7-10
{11}
20 км {ливн. осадки} 10/10 300 м
[Sc]
-2.2 -6.0 75 -10 -10 1004.9 1002.7 -0.4 1
12 16.12 ЮЗ 7
{14}
20 км позёмок {ливн. осадки, метель} 10/10 300 м
[Sc]
-2.2 -6.2 74 -10 -10 1005.9 1003.6
15 16.12 ЮЗ 7-10
{16}
20 км пыльная буря {метель} 10/10 300 м
[Sc]
-2.7 -6.5 75 -10 -10 1006.7 1004.4
18 16.12 ЮЗ 8-11
{14}
10 км слабый ливневой снег {метель} 10/10 300 м
[Cb cap]
-3.2 -5.1 87 -12 -12 1006.6 1004.4
21 16.12 ЮЗ 10-13
{17}
20 км позёмок {ливн. осадки, метель} 8/8 600 м
[Sc]
-1.9 -8.0 63 -10 -10 1006.8 1004.6 -3.8 0.5 28
00 17.12 ЮЗ 8-11
{14}
20 км позёмок {ливн. осадки, метель} 8/4 600 м
[Sc Ci]
-1.6 -8.4 60 -9 -9 1006.3 1004.1
03 17.12 В 5
{11}
20 км {метель} 10/3 600 м
[Cu Sc Ac und]
-3.0 -7.7 70 -9 -9 1001.9 999.7
06 17.12 В 8-15
{15}
2000 м слабый ливневой снег {метель} 10/10 300 м
[Cb cap]
-1.5 -1.5 100 -10 -10 995.3 993.1

 

Местоположение метеостанции Остров Беринга (Камчатский край, Россия): широта 55.20 долгота 165.90 высота над уровнем моря 18 м.

В архиве по умолчанию представлена погода на Острове Беринга за последнюю неделю. Архивные данные за месяц целиком и за предыдущие месяцы, начиная с января 2011 года, Вы можете получить, выбрав интересующий диапазон дат из раскрывающегося списка и нажав кнопку "Ввод!".

Внимание! Время в таблицах - всемирное. Для получения местного времени необходимо прибавить поправку, которая на Острове Беринга равна 12 ч.

Смотрите также архив погоды в соседних городах и на ближайших метеорологических станциях:

Погода на Мысе Африка (Камчатский край, Россия) (196 км)
Погода в Усть-Камчатске (Камчатский край, Россия) (230 км)
Погода на Мысе Озерном (Камчатский край, Россия) (319 км)
Погода в Ключах (Камчатский край, Россия) (343 км)
Погода в Козыревске (Камчатский край, Россия) (394 км)
Погода в Семячике (Камчатский край, Россия) (404 км)
Погода в Долиновке (Камчатский край, Россия) (438 км)
Погода в Эссо (Камчатский край, Россия) (460 км)
Погода в Мильково (Камчатский край, Россия) (476 км)
Погода в Оссоре (Камчатский край, Россия) (481 км)

Пояснения к столбцам:

Ветер - указаны скорость ветра в м/с - средняя за 10 мин, порывы в срок и между сроками (в фигурных скобках) и направление, откуда дует ветер: С - северный, СВ - северо-восточный, В - восточный, ЮВ - юго-восточный, Ю - южный, ЮЗ - юго-западный, З - западный, СЗ - северо-западный.
Видимость - горизонтальная дальность видимости в метрах или километрах. При видимости от 1 до 10 км при отсутствии осадков обычно наблюдается дымка, при ухудшении видимости до 1 км и менее - туман. В сухую погоду видимость может ухудшаться дымом, пылью или мглою.
Явления - указаны атмосферные явления, наблюдавшиеся в срок или в последний час перед сроком; фигурными скобками обозначены явления, наблюдавшиеся между сроками (за 1-3 часа до срока); квадратными скобками обозначены град или гололедные отложения с указанием их диаметра в мм.
Облачность - указаны через наклонную черту общая и нижняя облачность в баллах и высота нижней границы облаков в метрах; квадратными скобками обозначены формы облаков: Ci - перистые, Cs - перисто-слоистые, Cc - перисто-кучевые, Ac - высококучевые, As - высокослоистые, Sc - слоисто-кучевые, Ns - слоисто-дождевые, Cu - кучевые, Cb - кучево-дождевые. Подробнее классификацию облаков см. в Атласе облаков (PDF).
T - Температура воздуха - температура, измеренная на высоте 2 м над землей.
Td - Температура точки росы - температура, при понижении до которой содержащийся в воздухе водяной пар достигнет насыщения.
f - Относительная влажность воздуха - влажноcть воздуха, измеренная на высоте 2 м над землей.
Te - Эффективная температура - температура, которую ощущает одетый по сезону человек в тени. Характеристика душности погоды. При расчете учитывается влияние влажности воздуха и скорости ветра на теплоощущения человека.
Tes - Эффективная температура на солнце - температура, которую ощущает человек, с поправкой на солнечный нагрев. Характеристика знойности погоды. Зависит от высоты солнца над горизонтом, облачности и скорости ветра. Ночью, в пасмурную погоду, а также при ветре 12 м/с и более поправка равна нулю.
P - Атмосферное давление - приведенное к уровню моря атмосферное давление.
Po - Атмосферное давление - измеренное на уровне метеостанции атмосферное давление.
Tmin - Минимальная температура - минимум температуры воздуха на высоте 2 м над землей.
Tmax - Максимальная температура - максимум температуры воздуха на высоте 2 м над землей.
R - Количество осадков - Количество выпавших осадков за период времени, мм. При наведении курсора мыши на число - период времени, за который выпало указанное количество осадков.
R24 - Количество осадков - Количество выпавших осадков за 24 часа, мм.
S - Снежный покров - Высота снежного покрова, см. При наведении курсора мыши на число - состояние снежного покрова и степень покрытия местности в баллах.